TimeMST,TemperatureF,Dew PointF,Humidity,Sea Level PressureIn,VisibilityMPH,Wind Direction,Wind SpeedMPH,Gust SpeedMPH,PrecipitationIn,Events,Conditions,WindDirDegrees,DateUTC
12:15 AM,30.2,28.4,93,30.28,5.0,Calm,Calm,-,N/A,,Clear,0,2012-11-15 07:15:00
12:35 AM,30.2,28.4,93,30.28,5.0,Calm,Calm,-,N/A,,Clear,0,2012-11-15 07:35:00
12:55 AM,30.2,30.2,100,30.28,7.0,Calm,Calm,-,N/A,,Clear,0,2012-11-15 07:55:00
1:15 AM,28.4,24.8,86,30.28,5.0,Calm,Calm,-,N/A,,Clear,0,2012-11-15 08:15:00
1:35 AM,28.4,26.6,93,30.28,7.0,East,4.6,-,N/A,,Clear,90,2012-11-15 08:35:00
1:55 AM,26.6,24.8,93,30.28,3.0,Calm,Calm,-,N/A,,Clear,0,2012-11-15 08:55:00
2:15 AM,28.4,26.6,93,30.29,5.0,ESE,5.8,-,N/A,,Clear,120,2012-11-15 09:15:00
2:35 AM,26.6,24.8,93,30.29,6.0,Calm,Calm,-,N/A,,Clear,0,2012-11-15 09:35:00
2:55 AM,26.6,24.8,93,30.29,5.0,Calm,Calm,-,N/A,,Clear,0,2012-11-15 09:55:00
3:15 AM,26.6,26.6,100,30.30,6.0,Calm,Calm,-,N/A,,Clear,0,2012-11-15 10:15:00
3:35 AM,26.6,26.6,100,30.30,6.0,East,3.5,-,N/A,,Clear,100,2012-11-15 10:35:00
3:55 AM,26.6,26.6,100,30.30,8.0,East,3.5,-,N/A,,Clear,90,2012-11-15 10:55:00
4:15 AM,28.4,26.6,93,30.29,10.0,Calm,Calm,-,N/A,,Clear,0,2012-11-15 11:15:00
4:35 AM,26.6,24.8,93,30.30,10.0,Calm,Calm,-,N/A,,Clear,0,2012-11-15 11:35:00
4:55 AM,26.6,26.6,100,30.31,10.0,Calm,Calm,-,N/A,,Clear,0,2012-11-15 11:55:00
5:15 AM,26.6,26.6,100,30.31,8.0,Calm,Calm,-,N/A,,Clear,0,2012-11-15 12:15:00
5:35 AM,26.6,24.8,93,30.32,7.0,Calm,Calm,-,N/A,,Clear,0,2012-11-15 12:35:00
5:55 AM,24.8,24.8,100,30.31,3.0,Calm,Calm,-,N/A,,Clear,0,2012-11-15 12:55:00
6:15 AM,23.0,21.2,93,30.32,6.0,Calm,Calm,-,N/A,,Clear,0,2012-11-15 13:15:00
6:35 AM,24.8,24.8,100,30.32,9.0,Calm,Calm,-,N/A,,Clear,0,2012-11-15 13:35:00
6:50 AM,26.6,24.8,93,30.32,10.0,Calm,Calm,-,N/A,,Clear,0,2012-11-15 13:50:00
7:50 AM,26.6,24.8,93,30.33,10.0,Calm,Calm,-,N/A,,Clear,0,2012-11-15 14:50:00
8:50 AM,30.2,28.4,93,30.35,8.0,Calm,Calm,-,N/A,,Clear,0,2012-11-15 15:50:00
9:50 AM,35.6,28.4,75,30.35,15.0,Variable,5.8,-,N/A,,Clear,0,2012-11-15 16:50:00
10:50 AM,35.6,30.2,81,30.35,8.0,Calm,Calm,-,N/A,,Clear,0,2012-11-15 17:50:00
11:47 AM,39.2,30.2,70,30.32,10.0,Variable,3.5,-,N/A,,Clear,0,2012-11-15 18:47:00
12:51 PM,39.2,33.8,81,30.30,10.0,Calm,Calm,-,N/A,,Clear,0,2012-11-15 19:51:00
1:55 PM,42.8,32.0,66,30.28,10.0,Calm,Calm,-,N/A,,Clear,0,2012-11-15 20:55:00
2:55 PM,41.0,32.0,70,30.26,10.0,Variable,3.5,-,N/A,,Clear,0,2012-11-15 21:55:00
3:51 PM,42.8,33.8,70,30.24,10.0,Variable,3.5,-,N/A,,Clear,0,2012-11-15 22:51:00
4:47 PM,42.8,39.2,87,30.24,10.0,Calm,Calm,-,N/A,,Clear,0,2012-11-15 23:47:00
6:50 PM,35.6,32.0,87,30.23,12.0,Calm,Calm,-,N/A,,Clear,0,2012-11-16 01:50:00
7:50 PM,33.8,28.4,81,30.22,15.0,Calm,Calm,-,N/A,,Clear,0,2012-11-16 02:50:00
8:47 PM,33.8,30.2,87,30.21,15.0,Calm,Calm,-,N/A,,Clear,0,2012-11-16 03:47:00
9:15 PM,33.8,30.2,87,30.21,3.0,Calm,Calm,-,N/A,,Clear,0,2012-11-16 04:15:00
9:35 PM,33.8,30.2,87,30.20,5.0,ESE,3.5,-,N/A,,Clear,110,2012-11-16 04:35:00
9:55 PM,30.2,28.4,93,30.20,3.0,Calm,Calm,-,N/A,,Clear,0,2012-11-16 04:55:00
10:15 PM,32.0,30.2,93,30.20,4.0,Calm,Calm,-,N/A,,Clear,0,2012-11-16 05:15:00
10:35 PM,30.2,30.2,100,30.19,2.5,NE,3.5,-,N/A,,Clear,40,2012-11-16 05:35:00
10:55 PM,30.2,30.2,100,30.19,2.5,NE,4.6,-,N/A,,Clear,40,2012-11-16 05:55:00
11:15 PM,30.2,30.2,100,30.19,3.0,NNE,3.5,-,N/A,,Clear,30,2012-11-16 06:15:00
11:35 PM,30.2,30.2,100,30.19,2.5,NNE,3.5,-,N/A,,Clear,20,2012-11-16 06:35:00
11:55 PM,33.8,30.2,87,30.19,3.0,West,3.5,-,N/A,,Clear,260,2012-11-16 06:55:00